Regional Weather Roundup
Issued by NWS Pendleton, OR

Home | Current Version | Previous Version | Text Only | Print | Product List | Glossary On
Versions: 1 2 3 4 5 6 7 8 9 10 11 12 13 14 15 16 17 18 19 20 21 22 23 24 25 26 27 28 29 30 31 32 33 34 35 36 37 38 39 40 41 42 43 44 45 46 47 48 49 50
000
ASUS46 KPDT 010125
RWRPDT
PENDLETON REGIONAL WEATHER ROUNDUP
NATIONAL WEATHER SERVICE PENDLETON OREGON
600 PM PDT SUN APR 30 2017

NOTE: FAIR INDICATES FEW OR NO CLOUDS BELOW 12,000 FEET WITH NO
SIGNIFICANT WEATHER AND/OR OBSTRUCTIONS TO VISIBILITY.

# INDICATES UNOFFICIAL STATION AND DATA

WAZ520-010210-
EAST SLOPES OF WASHINGTON CASCADES

CITY            SKY/WX      TMP DP  RH  WIND    PRES   REMARKS
#CLE ELUM LAKE  N/A         43  35  73  CALM    30.22S
#MANASTASH CYN  N/A         50  50  100 CALM    30.14R
#NELSON 3SW     N/A         39  36  89  CALM    30.46S
#NILE           N/A         49  35  58  SW5     29.47R
#TEANAWAY 4NE   N/A         49  38  66  W6      N/A
#TROUT LAKE 1NE N/A         48  37  65  W8      30.25F
#TROUT LAKE 1E  N/A         49  36  61  NW3     30.27S
$$

WAZ521-010210-
SIMCOE HIGHLANDS

CITY            SKY/WX      TMP DP  RH  WIND    PRES   REMARKS
#BICKLETON HS   N/A         51  31  46  W17     29.82R
#CENTERVILLE 1SWN/A         52  34  50  W21     30.19R
#GOLDENDALE 1NE N/A         54  22  28  SW10    N/A
#GOLDENDALE 4W  N/A         54  10  17  W15     30.24R
#GOODNOE HILLS  N/A         56  33  42  SW26G36 N/A
#LYLE 6NE       N/A         53  37  54  SW10    30.21S
$$

WAZ026-010210-
KITTITAS VALLEY

CITY            SKY/WX      TMP DP  RH  WIND    PRES   REMARKS
ELLENSBURG AP   PTCLDY      50  33  52  NW18G31 30.19R
#ELLENSBURG 3NE N/A         48  35  60  N8      28.26R
#ELLENSBURG 13S N/A         55  31  40  E7      N/A
#KITTITAS 4N    N/A         46  34  63  W17     30.17S WCI 39
#KITTITAS 3S    N/A         50  34  54  W15G26  30.17S
#THORP 6N       N/A         44  35  70  W25G35  30.22R WCI 35
$$

WAZ027-010210-
YAKIMA VALLEY

CITY            SKY/WX      TMP DP  RH  WIND    PRES   REMARKS
SUNNYSIDE AP    PTCLDY      61  30  31  W15G25  30.16R
YAKIMA AIRPORT  PTCLDY      61  30  31  W17     30.17R
YAKIMA-VAGABOND SUNNY       57  29  34  N17G26  30.15R
#DONALD 2NE     N/A         62   4  10  W13     29.00R
#GRANDVIEW      N/A         62  26  25  W9      30.16R
#MABTON         N/A         62  32  32  NW14    30.15R
#MOXEE 2E       N/A         57   0  10  NW12    30.05R
#NACHES 2SW     N/A         55  35  47  W6      30.16S
#TERRACE HTS    N/A         60  34  37  N7      30.13R
#TOPPENISH      N/A         61  32  33  NW12    30.08R
#WEST VALLEY    N/A         58  33  39  NW5     30.15R
#W YAKIMA       N/A         56  34  43  W9      30.16R
#WILEY CITY 3W  N/A         58  25  28  CALM    30.14S
$$

WAZ028-010210-
LOWER COLUMBIA BASIN...WASHINGTON

CITY            SKY/WX      TMP DP  RH  WIND    PRES   REMARKS
PASCO           PTCLDY      64  29  27  NW24G35 30.14R
PROSSER AWOS    N/A         63  30  29  W14     30.19R
RICHLAND AWOS   PTCLDY      64  31  29  NW18G26 30.15R
#BENTON CITY    N/A         62  31  31  W10G24  30.05R
#CONNELL 5N     N/A         61  35  38  W8      30.09R
#ELTOPIA 6NW    N/A         59  33  37  W21G41  29.10R
#KAHLOTUS       N/A         59  33  37  NW24G35 30.09R
#KENNEWICK 3S   N/A         63  33  32  W2      30.14R
#PATERSON       N/A         64  30  28  N9      30.14R
#SAGEMOOR 2W    N/A         60  32  35  NW15G26 29.99R
#WEST PASCO     N/A         64  31  29  NW9     30.15R
$$

WAZ029-010210-
FOOTHILLS OF THE BLUES...WASHINGTON

CITY            SKY/WX      TMP DP  RH  WIND    PRES   REMARKS
WALLA WALLA AP  CLOUDY      60  32  35  NW14    30.16R
#CLYDE 6NW      N/A         58  30  34  SW12G24 30.10R
#LOWDEN 2SE     N/A         62  37  39  NW7     30.12R
#PLEASANT VIEW 1N/A         58  30  34  W8      30.14R
#PRESCOTT       N/A         61  32  33  W9      30.11R
#WHITMAN COLLEGEN/A         61  38  42  SW10G35 30.18R
#WAITSBURG 5S   N/A         55  32  41  NW8     30.23R
#WAITSBURG 8N   N/A         58  N/A N/A S14     29.91R
#WALLA WALLA 5E N/A         60  40  47  SW17G26 N/A
#WHITMAN MISSIONN/A         62  40  44  SW13    30.14R
$$

WAZ030-010210-
BLUE MOUNTAINS...WASHINGTON

CITY            SKY/WX      TMP DP  RH  WIND    PRES   REMARKS
#DIXIE 5SE      N/A         50  36  58  SW18G29 30.07R
$$

ORZ009-041-WAZ024-010210-
COLUMBIA RIVER GORGE

CITY            SKY/WX      TMP DP  RH  WIND    PRES   REMARKS
THE DALLES AP   PTCLDY      61  34  36  NW20G30 30.25S
#ARLINGTON AIRPON/A         57  35  43  W22     30.20R
#CELILO DOT     N/A         60  32  35  SW10    N/A
#MOSIER 1S      N/A         57  22  25  CALM    30.24R
#MURDOCK        N/A         59  38  45  NW14    30.21F
#SMITHVILLE     N/A         59  36  42  W20G26  30.19F

$$

ORZ510-010210-
NORTH CENTRAL OREGON

CITY            SKY/WX      TMP DP  RH  WIND    PRES   REMARKS
#ANTELOPE       N/A         52  34  50  W7      30.07R
#CHENOWITH 1W   N/A         51  32  48  W32     N/A
#DUFUR          N/A         55  35  47  W10     30.21R
#DUFUR 9E       N/A         49  32  52  NW26G36 30.29S WCI 41
#GRASS VALLEY 1SN/A         51  32  48  W22G31  30.34S
#KENT DOT       N/A         53  25  33  N15     N/A
#MAUPIN SCHOOL  N/A         57  35  43  W14     30.27S
#MORO SCHOOL    N/A         52  36  54  W17     30.30S
#SHANIKO 5WSW   N/A         50  24  36  N21     N/A
#SHANIKO 4NW    N/A         47  30  51  NW18G28 30.22R WCI 40
#TYGH VALLEY 2NEN/A         58  35  42  N7      30.20R
#WAPANITIA AIRPON/A         54  35  48  NW8     30.24R
#WASCO DOT      N/A         56  28  34  W23     N/A
#WASCO 5NE      N/A         54  34  47  W15G25  30.22R
$$

ORZ511-010210-
CENTRAL OREGON

CITY            SKY/WX      TMP DP  RH  WIND    PRES   REMARKS
BEND AIRPORT    PTCLDY      55  19  24  NW18G28 30.21R
MADRAS AIRPORT  SUNNY       54  28  36  NW16    30.24R
PRINEVILLE AP   SUNNY       55  23  29  W21G29  30.20S
REDMOND AIRPORT SUNNY       57  24  28  W15G26  30.21F
#ASHWOOD SCHOOL N/A         54  31  41  NW10    30.17R
#BEND 1SW       N/A         55  25  31  N1      N/A
#BEND-AWBREY    N/A         62  22  21  NW3     30.16R
#BEND-KIM LN    N/A         56  29  35  W9      30.13R
#CULVER         N/A         57  27  31  SW5     30.11S
#CULVER 8W      N/A         59  26  28  W3      30.21S
#LAKE BILLY CHINN/A         54  N/A N/A W8      30.25F
#MADRAS 4S      N/A         56  14  19  NW6     30.28S
#POWELL BUTTE   N/A         55  24  30  NW21    30.14S
#PRINEVILLE     N/A         58  28  32  W2      30.25R
#PRINEVILLE 3N  N/A         56  29  35  W13     30.16S
#WARM SPRINGS   N/A         59  33  37  CALM    30.18R

$$


ORZ509-010210-
EAST SLOPES OF OREGON CASCADES

CITY            SKY/WX      TMP DP  RH  WIND    PRES   REMARKS
SISTERS AWOS    N/A         54  30  40  W28G36  30.17R
#CAMP SHERMAN   N/A         51  30  44  E7      30.30S
#LA PINE 4NW    N/A         54  29  38  W3      30.22S
#LAVA BUTTE DOT N/A         53  19  26  W2      N/A
#SISTERS 3N     N/A         54  27  35  W2      30.20S
#SUNRIVER       N/A         55  25  31  S6      30.17F
#WANOGA BUTTE D N/A         42  18  38  NW16    N/A    WCI 34

$$

ORZ044-010210-
LOWER COLUMBIA BASIN...OREGON

CITY            SKY/WX      TMP DP  RH  WIND    PRES   REMARKS
HERMISTON       SUNNY       62  36  38  SW21G32 30.16R
#BOARDMAN 8SW   N/A         59  38  45  W20     30.18R
#ECHO 8SW       N/A         60  36  41  W10     30.19R
#IONE SCHOOL    N/A         56  33  42  W17G29  30.22R
#UMATILLA       N/A         64  36  35  W15     30.08
$$

ORZ507-010210-
NORTHERN FOOTHILLS OF THE BLUES

CITY            SKY/WX      TMP DP  RH  WIND    PRES   REMARKS
PENDLETON AIRPT PTCLDY      57  37  47  W23G32  30.17R
#ADAMS 3WNW     N/A         56  39  53  W15     30.15R
#ATHENA         N/A         56  35  45  W10     30.18S
#CAYUSE         N/A         56  35  45  W20G26  30.16R
#HELIX SCHOOL   N/A         57  37  47  W14G24  30.15R
#HELIX 3N       N/A         56  37  49  SW18G28 30.13R
#HOLDMAN 6E     N/A         57  37  47  SW16G25 29.96R
#M-F FERNDALE   N/A         61  36  39  CALM    30.12R
#M-F GROVE ELEM N/A         60  34  37  W10G25  30.13R
#M-FREEWATER 5SEN/A         58  39  49  SW12    30.15R
#PENDLETON DNTN N/A         61  31  32  W5      30.16S
#PDT AQUATIC CTRN/A         58  33  39  SW16    30.20R
#PENDLETON 7NW  N/A         58  39  49  W18G26  31.51S
#PILOT ROCK 1S  N/A         56  30  37  W7      30.19R
#PILOT ROCK     N/A         57  33  40  NW13    30.20R
#TUTUILLA       N/A         58  37  45  W10G24  30.18R
#UMAPINE 2E     N/A         61  42  50  SW10    30.12R

$$

ORZ508-010210-
SOUTHERN FOOTHILLS OF THE BLUES

CITY            SKY/WX      TMP DP  RH  WIND    PRES   REMARKS
LEXINGTON       SUNNY       57  30  35  W23G31  30.24R
#AJAX           N/A         52  26  36  SW13    30.36R
#CONDON 5W      N/A         46  26  45  NW16G25 30.19R WCI 39
#FOSSIL SCHOOL  N/A         53  31  43  W10     30.14S
#HEPPNER EOC    N/A         52  31  44  W22G33  30.13R
#HEPPNER 4NE    N/A         49  31  50  W22G32  30.17R WCI 42
#LEXINGTON 2SE  N/A         56  31  38  NW22G29 30.19R
#MIKKALO        N/A         53  28  38  NW21G28 30.31R
#OLEX 4N        N/A         55  33  43  W26G39  30.20R
#RUGGS 2SW      N/A         51  32  48  N15G26  30.21R

$$

ORZ502-503-010210-
BLUE MOUNTAINS

CITY            SKY/WX      TMP DP  RH  WIND    PRES   REMARKS
MEACHAM         PTCLDY      48  25  40  MISG    30.18R
#GREENHORN 9SW  N/A         56  27  33  W6      26.32R
#HARDMAN 10S    N/A         48  30  49  N2      30.27R
#LADD CYN SMT   N/A         53  33  46  N14     N/A
#LONG CREEK HS  N/A         53  34  48  CALM    N/A
#N POWDER DOT   N/A         55  32  41  N16     N/A
#PIKES PEAK     N/A         47  32  56  N29     27.99S WCI 38
#TOLLGATE       N/A         40  28  62  SW7     29.99R
#TROY SCHOOL    N/A         61  32  33  NW7     29.93R
#UKIAH          N/A         49  34  56  N15     30.08R WCI 43
#WESTON 4E      N/A         50  34  54  SW9     30.13R
$$

ORZ505-010210-
JOHN DAY BASIN

CITY            SKY/WX      TMP DP  RH  WIND    PRES   REMARKS
JOHN DAY        PTCLDY      58  21  24  W12G24  30.16R
#ANTELOPE 9ESE  N/A         61  32  33  W5      N/A
#DAYVILLE SCHOOLN/A         60  21  22  N9      30.10R
#MITCHELL 8NW   N/A         55  30  38  W1      30.16R
#MONUMENT HS    N/A         62  27  26  E9      30.10R
#MT. VERNON 5SE N/A         56  27  33  SW3     30.10R
$$

ORZ506-010210-
OCHOCO AND JOHN DAY HIGHLANDS

CITY            SKY/WX      TMP DP  RH  WIND    PRES   REMARKS
#HORSE RIDGE DO N/A         55  13  19  NW17    N/A
#PAULINA ODOT   N/A         58  15  18  W14     N/A
#PINE MTN OBS   N/A         44  21  40  NW5     N/A
#SENECA 9NW     N/A         54  26  34  N1      30.08R
$$

ORZ049-010210-
GRANDE RONDE VALLEY

CITY            SKY/WX      TMP DP  RH  WIND    PRES   REMARKS
LA GRANDE       PTCLDY      55  32  41  N18     30.15R
#COVE           N/A         55  37  51  N6      30.18R
#COVE SCHOOL    N/A         55  33  43  NW1     30.16R
#ELGIN 3N       N/A         53  24  32  W2      30.12R
#ELGIN 1E       N/A         55  26  32  NW5     N/A
#IMBLER SCHOOL  N/A         52  28  39  CALM    30.11R
#ISLAND CITY 4N N/A         58  42  55  CALM    30.35S
#UNION 1S       N/A         55  33  43  N14     30.12R
$$

ORZ050-010210-
WALLOWA COUNTY

CITY            SKY/WX      TMP DP  RH  WIND    PRES   REMARKS
JOSEPH AIRPORT  PTCLDY      54  16  22  NW14    30.12R
#IMNAHA SCHOOL  N/A         61  30  31  E7      30.08R
#IMNAHA 10S     N/A         59  33  37  SW7     30.07R
#JOSEPH 3N      N/A         51  26  37  N21G29  30.12R
#JOSEPH 3W      N/A         48  19  31  CALM    29.96R
#LOSTINE 3SE    N/A         51  29  42  N10     30.17R
#MT HOWARD 8000 N/A         34  20  56  W7      30.13S
#PROMISE 1S     N/A         49  30  48  W14     30.22R WCI 44



$$



USA.gov is the U.S. government's official web portal to all federal, state and local government web resources and services.